Chariton, IA

4:18 PM CST on February 07, 2016 (GMT -0600)
Chariton Municipal

Weather History for KCNC - February, 2014

Change the Weather History Date:

Tuesday, February 25, 2014

  Actual Average Record
Temperature  
Mean Temperature 10 °F -  
Max Temperature 15 °F 40 °F 61 °F (1981)
Min Temperature 5 °F 18 °F -9 °F (1967)
Degree Days  
Heating Degree Days 55    
Moisture  
Dew Point 1 °F    
Average Humidity 69    
Maximum Humidity 86    
Minimum Humidity 48    
Precipitation  
Precipitation 0.00 in - - ()
Sea Level Pressure  
Sea Level Pressure 30.35 in    
Wind  
Wind Speed 11 mph (NNW)    
Max Wind Speed 25 mph    
Max Gust Speed 32 mph    
Visibility 10 miles    
Events Snow    
Averages and records for this station are not official NWS values.
T = Trace of Precipitation, MM = Missing Value Source: NWS Daily Summary

Daily Weather History Graph

Daily Weather History Graph

Search for Another Location

Airport or City:

Trip Planner

Search our weather history database for the weather conditions in past years. The results will help you decide how hot, cold, wet, or windy it might be!

Date:

Astronomy

Feb. 25, 2014 Rise Set
Actual Time 6:53 AM CST 5:59 PM CST
Civil Twilight 6:25 AM CST 6:27 PM CST
Nautical Twilight 5:54 AM CST 6:59 PM CST
Astronomical Twilight 5:22 AM CST 7:31 PM CST
Moon 3:50 AM CST (2/25) 2:04 PM CST (2/25)
Length of Visible Light 12h 01m
Length of Day
11h 06m
Waning Crescent, 18% of the Moon is Illuminated
Feb 25
Waning Crescent
Mar 1
New
Mar 8
First Quarter
Mar 16
Full
Mar 23
Last Quarter

Hourly Weather History & Observations

Time (CST) Temp. Windchill Dew Point Humidity Pressure Visibility Wind Dir Wind Speed Gust Speed Precip Events Conditions
12:15 AM 15.8 °F 7.2 °F 12.2 °F 86% 30.30 in 9.0 mi NNE 5.8 mph - N/A Snow Light Snow
12:30 AM 15.8 °F 6.1 °F 12.2 °F 86% 30.30 in 10.0 mi NNE 6.9 mph - N/A   Overcast
12:55 AM 15.8 °F 5.1 °F 10.4 °F 79% 30.31 in 10.0 mi North 8.1 mph - N/A   Overcast
1:15 AM 14.0 °F 3.9 °F 10.4 °F 86% 30.31 in 10.0 mi North 6.9 mph - N/A Snow Light Snow
1:35 AM 14.0 °F 2.9 °F 10.4 °F 86% 30.31 in 9.0 mi North 8.1 mph - N/A Snow Light Snow
1:55 AM 14.0 °F 2.9 °F 10.4 °F 86% 30.31 in 8.0 mi North 8.1 mph - N/A Snow Light Snow
2:15 AM 14.0 °F 2.9 °F 10.4 °F 86% 30.31 in 10.0 mi North 8.1 mph - N/A   Overcast
2:35 AM 14.0 °F 2.9 °F 10.4 °F 86% 30.31 in 10.0 mi North 8.1 mph - N/A   Overcast
2:55 AM 12.2 °F -0.2 °F 8.6 °F 85% 30.31 in 10.0 mi North 9.2 mph - N/A Snow Light Snow
3:15 AM 12.2 °F 0.7 °F 8.6 °F 85% 30.32 in 10.0 mi NNW 8.1 mph - N/A Snow Light Snow
3:35 AM 12.2 °F 1.7 °F 8.6 °F 85% 30.32 in 10.0 mi NNW 6.9 mph - N/A   Overcast
3:55 AM 12.2 °F 0.7 °F 8.6 °F 85% 30.32 in 10.0 mi NNW 8.1 mph - N/A   Overcast
4:15 AM 10.4 °F -2.4 °F 6.8 °F 85% 30.32 in 10.0 mi NNW 9.2 mph - N/A   Overcast
4:35 AM 8.6 °F -4.7 °F 5.0 °F 85% 30.33 in 10.0 mi NW 9.2 mph - N/A Snow Light Snow
4:55 AM 8.6 °F -2.6 °F 5.0 °F 85% 30.34 in 10.0 mi WNW 6.9 mph - N/A   Overcast
5:15 AM 8.6 °F -3.7 °F 5.0 °F 85% 30.33 in 10.0 mi NW 8.1 mph - N/A   Overcast
5:35 AM 8.6 °F -5.5 °F 5.0 °F 85% 30.34 in 10.0 mi NW 10.4 mph - N/A   Overcast
5:55 AM 8.6 °F -7.0 °F 5.0 °F 85% 30.33 in 10.0 mi NNW 12.7 mph - N/A   Overcast
6:15 AM 8.6 °F -8.3 °F 3.2 °F 79% 30.34 in 10.0 mi NNW 15.0 mph - N/A Snow Light Snow
6:35 AM 8.6 °F -7.0 °F 5.0 °F 85% 30.35 in 10.0 mi NNW 12.7 mph - N/A   Overcast
6:55 AM 6.8 °F -9.3 °F 3.2 °F 85% 30.34 in 10.0 mi NNW 12.7 mph - N/A Snow Light Snow
7:15 AM 6.8 °F -9.3 °F 1.4 °F 79% 30.35 in 10.0 mi NNW 12.7 mph - N/A   Scattered Clouds
7:35 AM 6.8 °F -11.3 °F 1.4 °F 79% 30.35 in 10.0 mi NNW 16.1 mph - N/A   Clear
7:55 AM 6.8 °F -7.8 °F 1.4 °F 79% 30.36 in 10.0 mi NNW 10.4 mph 19.6 mph N/A   Clear
8:15 AM 6.8 °F -7.8 °F 1.4 °F 79% 30.37 in 10.0 mi NNW 10.4 mph - N/A   Clear
8:35 AM 6.8 °F -10.0 °F -0.4 °F 72% 30.38 in 10.0 mi NNW 13.8 mph - N/A   Scattered Clouds
8:55 AM 6.8 °F -10.0 °F -0.4 °F 72% 30.38 in 10.0 mi NNW 13.8 mph - N/A   Partly Cloudy
9:15 AM 6.8 °F -11.3 °F -0.4 °F 72% 30.38 in 10.0 mi NNW 16.1 mph - N/A   Partly Cloudy
9:35 AM 6.8 °F -10.0 °F -0.4 °F 72% 30.36 in 10.0 mi North 13.8 mph - N/A   Clear
9:55 AM 6.8 °F -8.6 °F -0.4 °F 72% 30.37 in 10.0 mi North 11.5 mph 18.4 mph N/A   Clear
10:15 AM 6.8 °F -9.3 °F -0.4 °F 72% 30.39 in 10.0 mi North 12.7 mph - N/A   Clear
10:35 AM 8.6 °F -5.5 °F -0.4 °F 67% 30.39 in 10.0 mi North 10.4 mph - N/A   Clear
10:55 AM 8.6 °F -4.7 °F -0.4 °F 67% 30.39 in 10.0 mi North 9.2 mph - N/A   Clear
11:15 AM 8.6 °F -6.3 °F 1.4 °F 73% 30.38 in 10.0 mi North 11.5 mph - N/A   Clear
11:35 AM 8.6 °F -2.6 °F -0.4 °F 67% 30.39 in 10.0 mi North 6.9 mph - N/A   Clear
11:55 AM 8.6 °F -7.0 °F -0.4 °F 67% 30.39 in 10.0 mi NW 12.7 mph - N/A   Clear
12:15 PM 8.6 °F -7.7 °F -0.4 °F 67% 30.38 in 10.0 mi NW 13.8 mph - N/A   Partly Cloudy
12:35 PM 10.4 °F -3.3 °F -2.2 °F 57% 30.38 in 10.0 mi NW 10.4 mph - N/A   Clear
12:55 PM 10.4 °F -3.3 °F -0.4 °F 62% 30.38 in 10.0 mi WNW 10.4 mph 16.1 mph N/A   Clear
1:15 PM 10.4 °F -4.8 °F -0.4 °F 62% 30.37 in 10.0 mi NW 12.7 mph - N/A   Clear
1:35 PM 10.4 °F -6.6 °F -2.2 °F 57% 30.37 in 10.0 mi NW 16.1 mph - N/A   Clear
1:55 PM 12.2 °F -1.8 °F -2.2 °F 53% 30.36 in 10.0 mi WNW 11.5 mph - N/A   Clear
2:15 PM 12.2 °F -2.5 °F -0.4 °F 57% 30.35 in 10.0 mi WNW 12.7 mph - N/A   Clear
2:35 PM 12.2 °F -2.5 °F -2.2 °F 53% 30.34 in 10.0 mi NW 12.7 mph - N/A   Clear
2:55 PM 12.2 °F -3.1 °F -2.2 °F 53% 30.34 in 10.0 mi NW 13.8 mph - N/A   Clear
3:15 PM 12.2 °F -3.1 °F -4.0 °F 48% 30.34 in 10.0 mi NNW 13.8 mph - N/A   Clear
3:35 PM 12.2 °F -4.3 °F -4.0 °F 48% 30.34 in 10.0 mi NW 16.1 mph - N/A   Clear
3:55 PM 12.2 °F -4.3 °F -2.2 °F 53% 30.33 in 10.0 mi NNW 16.1 mph - N/A   Clear
4:15 PM 12.2 °F -3.1 °F -2.2 °F 53% 30.33 in 10.0 mi NNW 13.8 mph - N/A   Clear
4:35 PM 10.4 °F -6.6 °F -4.0 °F 52% 30.33 in 10.0 mi NW 16.1 mph 23.0 mph N/A   Clear
4:55 PM 10.4 °F -7.2 °F -4.0 °F 52% 30.32 in 10.0 mi NW 17.3 mph - N/A   Clear
5:15 PM 10.4 °F -4.1 °F -4.0 °F 52% 30.32 in 10.0 mi NW 11.5 mph 18.4 mph N/A   Clear
5:35 PM 12.2 °F -1.0 °F -2.2 °F 53% 30.32 in 10.0 mi NW 10.4 mph - N/A   Partly Cloudy
5:55 PM 12.2 °F -2.5 °F -2.2 °F 53% 30.32 in 10.0 mi WNW 12.7 mph - N/A   Mostly Cloudy
6:15 PM 10.4 °F -5.4 °F -2.2 °F 57% 30.33 in 10.0 mi WNW 13.8 mph 19.6 mph N/A   Overcast
6:35 PM 10.4 °F -3.3 °F -2.2 °F 57% 30.34 in 10.0 mi WNW 10.4 mph 16.1 mph N/A   Overcast
6:55 PM 10.4 °F -3.3 °F -0.4 °F 62% 30.35 in 10.0 mi WNW 10.4 mph 18.4 mph N/A   Overcast
7:15 PM 10.4 °F -4.1 °F -0.4 °F 62% 30.35 in 10.0 mi WNW 11.5 mph - N/A   Overcast
7:35 PM 10.4 °F -3.3 °F -0.4 °F 62% 30.35 in 10.0 mi NW 10.4 mph - N/A   Overcast
7:55 PM 10.4 °F -4.1 °F -0.4 °F 62% 30.36 in 10.0 mi WNW 11.5 mph - N/A   Overcast
8:15 PM 10.4 °F -4.8 °F -0.4 °F 62% 30.37 in 10.0 mi WNW 12.7 mph 18.4 mph N/A   Overcast
8:35 PM 10.4 °F -6.0 °F -0.4 °F 62% 30.38 in 10.0 mi NW 15.0 mph 20.7 mph N/A   Overcast
8:55 PM 10.4 °F -8.6 °F -0.4 °F 62% 30.39 in 9.0 mi NW 20.7 mph 29.9 mph N/A   Overcast
9:15 PM 10.4 °F -10.3 °F -0.4 °F 62% 30.39 in 9.0 mi NNW 25.3 mph 32.2 mph N/A Snow Light Snow
9:35 PM 8.6 °F -10.5 °F -2.2 °F 62% 30.40 in 9.0 mi NW 19.6 mph 32.2 mph N/A   Overcast
9:55 PM 8.6 °F -12.3 °F -2.2 °F 62% 30.41 in 10.0 mi NW 24.2 mph - N/A   Overcast
10:15 PM 8.6 °F -10.0 °F -2.2 °F 62% 30.41 in 10.0 mi NW 18.4 mph 25.3 mph N/A   Overcast
10:35 PM 6.8 °F -10.0 °F -2.2 °F 67% 30.42 in 10.0 mi NW 13.8 mph 23.0 mph N/A   Overcast
10:55 PM 6.8 °F -10.7 °F -4.0 °F 61% 30.42 in 10.0 mi NNW 15.0 mph 21.9 mph N/A   Overcast
11:15 PM 6.8 °F -13.4 °F -4.0 °F 61% 30.42 in 10.0 mi NNW 20.7 mph 26.5 mph N/A   Overcast
11:35 PM 5.0 °F -13.0 °F -5.8 °F 61% 30.42 in 10.0 mi NW 15.0 mph 20.7 mph N/A   Mostly Cloudy
11:55 PM 5.0 °F -12.3 °F -5.8 °F 61% 30.43 in 10.0 mi NW 13.8 mph - N/A   Mostly Cloudy